User: anonymous   Login
Location: Allos
(44.2333°N, 6.6333°E)
Time: 02:41:08
(UTC+00:00)
Language:

Cosmos 2228 Rocket - Orbit

View from above orbital plane
View from above orbital plane
View from above satellite
View from above satellite

Ground track
Ground track

The orbit data is extracted from the following two-line orbital elements,

1 22287U 92094B   21060.55096024  .00000048  00000-0  34652-5 0  9992
2 22287  82.5213 257.7560 0023698 218.0968 141.8570 14.78171741497443
Epoch (UTC): 01 March 2021 13:13:22
Eccentricity: 0.0023698
inclination: 82.5213°
perigee height: 618 km
apogee height: 652 km
right ascension of ascending node: 257.7560°
argument of perigee: 218.0968°
revolutions per day: 14.78171741
mean anomaly at epoch: 141.8570°
orbit number at epoch: 49744

The dashed part of the orbit path shows where the satellite is in the earth's shadow,  

DLR